Weather in Kumeni

Russia / Kirov Oblast     58°06′13″N   49°54′11″E
temp.,
°C
wind,
m/s
gust,
m/s
humid.,
%
clouds,
%
prec.,
mm/h
press.,
hPa
HPBL,
m
6 may, thu
thu600:00+2w611875 0.0 1007487
03:000w510935 0.0 1010305
06:00+2w59845 0.0 1011428
09:00+6w57625 0.0 10131070
12:00+10w57525 0.0 10131297
15:00+12wsw575892 0.0 10131460
18:00+12sse357198 0.0 1013182
21:00+9sse51282100 0.0 1013208
7 may, fri
fri700:00+9s51391100 0.0 1013309
03:00+8ssw51487100 0.0 1013329
06:00+10ssw5148299 0.0 1013467
09:00+15ssw8126087 0.0 10121384
12:00+17ssw91252100 0.1 10122070
15:00+16ssw71260100 0.4 10121711
18:00+13ssw81266100 0.8 1012810
21:00+8wnw4690100 1.8 1014410
8 may, sat
sat800:00+7w25930 1.3 1017136
03:00+5w22930 1.3 101840
06:00+7w11820 0.0 1019134
09:00+12se33574 0.0 1019890
12:00+15se45454 0.0 10181468
15:00+16se584726 0.0 10161733
18:00+15s5967100 0.1 1015444
21:00+11se51282100 0.1 1015243
9 may, sun
sun900:00+12sse61676100 0.0 1014432
03:00+11sse7167784 0.0 1013385
06:00+12sse81871100 0.0 1013622
09:00+16s81360100 0.1 1013962
12:00+13s71677100 0.5 1013869
15:00+16s71366100 0.6 1014890
18:00+11nw5792100 0.1 1016332
21:00+8nw3792100 2.1 1018408
10 may, mon
mon1000:00+8wnw3793100 1.3 1020483
03:00+7nw3789100 1.6 1022523
06:00+6nnw5785100 0.0 1025561
09:00+8nnw5672100 0.0 1027931
12:00+12nnw56535 0.0 10281296
15:00+13nnw45445 0.0 10281591
18:00+12nnw24545 0.0 1029139
21:00+8nw22615 0.0 103013